{"data":{"norad_id":43258,"intl_designator":"2018-030K","name":"IRIDIUM 143","alt_names":[],"object_type":"PAYLOAD","status":"ACTIVE","operator":null,"country":"US","launch_date":"2018-03-30","launch_site_code":"AFWTR","launch_vehicle":null,"mission":null,"orbit_class":"UNKNOWN","rcs_meters":null,"size_class":null,"mass_kg":null,"dimensions":null,"purposes":["comms"],"wikipedia_slug":null,"has_3d_model":false,"image_url":null,"decayed_at":null,"tle_current":{"epoch":"2026-05-24T23:10:59.350944Z","epoch_age_seconds":88379,"freshness":"FRESH","line1":"1 43258U 18030K   26144.96596471  .00000102  00000+0  29236-4 0  9996","line2":"2 43258  86.3942 300.2703 0002071  89.6044 270.5389 14.34218363426766","mean_motion":14.34218363,"eccentricity":0.0002071,"inclination_deg":86.3942,"raan_deg":300.2703,"arg_perigee_deg":89.6044,"mean_anomaly_deg":270.5389,"bstar":2.9236e-5,"rev_number":42676,"period_min":100.40312111106,"perigee_km":776.18314875798,"apogee_km":779.14708199417,"semimajor_km":7155.8021153761,"source":"CELESTRAK","updated_at":"2026-05-25T13:38:14.809459Z"}}}